VK6DUG Weather Reports


time (UTC)temp
C
wind
direction
speed
KPH
gust
KPH
rain 1hr
cm
rain 24hr
cm
rain mn
cm
humidity
%
barometer
mb
20260503230017 7 24 1.6 4.8 0.00 0.00 0.00 96 1030.8
20260503225035 7 321 1.6 3.2 0.00 0.00 0.00 95 1030.8
20260503224032 7 16 4.8 6.4 0.00 0.00 0.00 95 1030.7
20260503223029 7 9 1.6 3.2 0.00 0.00 0.00 95 1030.6
20260503222024 7 357 1.6 6.4 0.00 0.00 0.00 95 1030.6
20260503221022 7 23 4.8 6.4 0.00 0.00 0.00 95 1030.6
20260503220019 8 72 1.6 3.2 0.00 0.00 0.00 95 1030.5
20260503215016 7 5 3.2 8.0 0.00 0.00 0.00 95 1030.5
20260503214033 7 329 3.2 8.0 0.00 0.00 0.00 95 1030.4
20260503213031 7 86 3.2 4.8 0.00 0.00 0.00 95 1030.3
20260503212025 7 205 3.2 6.4 0.00 0.00 0.00 95 1030.4
20260503211022 7 336 4.8 8.0 0.00 0.00 0.00 94 1030.4
20260503210019 7 80 1.6 4.8 0.00 0.00 0.00 94 1030.3
20260503205035 7 356 4.8 6.4 0.00 0.00 0.00 94 1030.2
20260503204033 7 297 3.2 8.0 0.00 0.00 0.00 94 1030.2
20260503203029 7 98 1.6 3.2 0.00 0.00 0.00 94 1030.1
20260503202025 7 346 6.4 8.0 0.00 0.00 0.00 94 1030.0
20260503201022 7 84 4.8 6.4 0.00 0.00 0.00 94 1030.0
20260503200019 7 180 3.2 8.0 0.00 0.00 0.00 94 1030.2
20260503195036 8 306 3.2 6.4 0.00 0.00 0.00 94 1030.3
20260503194031 8 145 1.6 4.8 0.00 0.00 0.00 94 1030.2
20260503193027 8 229 3.2 6.4 0.00 0.00 0.00 93 1030.3
20260503192024 8 8 4.8 8.0 0.00 0.00 0.00 93 1030.4
20260503191021 8 102 1.6 4.8 0.00 0.00 0.00 93 1030.3
20260503190017 8 52 1.6 4.8 0.00 0.00 0.00 93 1030.3
20260503185033 8 103 1.6 3.2 0.00 0.00 0.00 93 1030.2
20260503184031 8 82 1.6 3.2 0.00 0.00 0.00 93 1030.2
20260503183026 8 76 1.6 3.2 0.00 0.00 0.00 93 1030.2
20260503182021 8 89 1.6 4.8 0.00 0.00 0.00 93 1030.1
20260503181019 9 87 3.2 3.2 0.00 0.00 0.00 93 1030.2
20260503180033 9 93 3.2 4.8 0.00 0.00 0.00 93 1030.1
20260503175030 8 123 3.2 6.4 0.00 0.00 0.00 92 1030.1
20260503174025 8 97 1.6 3.2 0.00 0.00 0.00 92 1030.0
20260503173021 8 78 1.6 3.2 0.00 0.00 0.00 92 1030.1
20260503172016 9 85 1.6 3.2 0.00 0.00 0.00 91 1029.9
20260503171033 9 55 1.6 4.8 0.00 0.00 0.00 91 1030.0
20260503131025 12 100 1.6 3.2 0.00 0.00 0.00 83 1029.5
20260503081032 18 216 3.2 6.4 0.00 0.00 0.00 69 1027.7
20260503072017 18 244 4.8 8.0 0.00 0.00 0.00 69 1027.7
20260503071033 18 246 4.8 9.7 0.00 0.00 0.00 68 1027.7
20260503055025 19 151 3.2 6.4 0.00 0.00 0.00 62 1028.0
20260503054023 19 205 4.8 9.7 0.00 0.00 0.00 62 1028.0
20260503053019 19 196 4.8 9.7 0.00 0.00 0.00 62 1028.0
20260503052016 19 84 3.2 8.0 0.00 0.00 0.00 61 1028.2
20260503051033 18 87 3.2 6.4 0.00 0.00 0.00 63 1028.3
20260503050030 18 115 3.2 6.4 0.00 0.00 0.00 64 1028.5
20260503045026 18 60 1.6 4.8 0.00 0.00 0.00 63 1028.7
20260503044023 18 262 1.6 4.8 0.00 0.00 0.00 65 1028.9
20260503043019 18 73 1.6 6.4 0.00 0.00 0.00 65 1029.0
20260503042017 18 79 1.6 8.0 0.00 0.00 0.00 66 1029.1
20260503041034 17 107 4.8 9.7 0.00 0.00 0.00 68 1029.3
20260503040030 17 104 3.2 6.4 0.00 0.00 0.00 69 1029.6
20260503035028 17 105 6.4 14.5 0.00 0.00 0.00 70 1029.8
20260503034026 17 116 1.6 8.0 0.00 0.00 0.00 71 1029.7
20260503033023 16 128 3.2 8.0 0.00 0.00 0.00 71 1029.9
20260503032020 16 122 3.2 9.7 0.00 0.00 0.00 72 1030.0
20260503031018 16 129 4.8 12.9 0.00 0.00 0.00 72 1029.9
20260503030035 15 114 4.8 12.9 0.00 0.00 0.00 74 1030.1
20260503025033 16 130 4.8 12.9 0.00 0.00 0.00 75 1030.2
20260503024029 15 123 6.4 14.5 0.00 0.00 0.00 76 1030.3
20260503023027 15 127 6.4 9.7 0.00 0.00 0.00 78 1030.3
20260503022024 14 127 4.8 8.0 0.00 0.00 0.00 80 1030.5
20260503021022 13 135 3.2 8.0 0.00 0.00 0.00 83 1030.5
20260503020019 13 126 4.8 9.7 0.00 0.00 0.00 86 1030.6
20260503015016 13 103 4.8 12.9 0.00 0.00 0.00 90 1030.6
20260503014034 12 104 4.8 9.7 0.00 0.00 0.00 93 1030.6
20260503013030 12 92 4.8 11.3 0.00 0.00 0.00 95 1030.6
20260503012027 12 73 1.6 9.7 0.00 0.00 0.00 96 1030.6
20260503011024 11 80 3.2 8.0 0.00 0.00 0.00 96 1030.7
20260503010022 10 72 4.8 9.7 0.00 0.00 0.00 97 1030.7
20260503005019 10 78 6.4 9.7 0.00 0.00 0.00 97 1030.7
20260503004017 10 75 3.2 6.4 0.00 0.00 0.00 97 1030.6
20260503003034 9 70 3.2 8.0 0.00 0.00 0.00 97 1030.6
20260503002031 8 45 3.2 6.4 0.00 0.00 0.00 97 1030.6
20260503001029 7 26 3.2 6.4 0.00 0.00 0.00 97 1030.5
20260503000025 7 359 3.2 8.0 0.00 0.00 0.00 97 1030.4
20260502235021 6 5 3.2 6.4 0.00 0.00 0.00 96 1030.3
20260502234018 5 48 3.2 4.8 0.00 0.00 0.00 96 1030.0
20260502233016 5 270 1.6 4.8 0.00 0.00 0.00 96 1030.0
20260502232033 5 248 3.2 4.8 0.00 0.00 0.00 96 1029.9
20260502231030 5 15 4.8 8.0 0.00 0.00 0.00 96 1029.7